[[{"header":{"parameterUnit":"m.s-1","parameterCategory":1,"la1":30.2991,"la2":30.254,"lo1":-89.0895,"lo2":-89.0444,"dy":0.0017,"dx":0.0017,"nx":28,"ny":28,"refTime":"2025-07-11T03:00:00:Z","depth":0,"parameterNumber":2,"parameterNumberName":"U-component_of_WINDS"},"data":[0,0,0,0,0,0,0,0,0,0,0,0,0,0,0,0,0,0,0,0,0,0,0,0,0,0,0,0,0,0,0,0,0,0,0,0,0,0,0,0,0,0,0,0,0,0,0,0,0,0,0,0,0,0,0,0,0,0,2.4342,2.4342,0,2.4375,2.4376,2.4376,2.4345,2.4344,2.4343,2.4342,2.4383,2.4385,2.4388,0,0,0,0,0,0,0,0,0,0,0,0,0,2.4257,2.4258,2.4341,2.4342,2.4342,2.4375,2.4376,2.4376,2.4346,2.4344,2.4343,2.4341,2.4382,2.4385,2.4388,0,0,0,0,0,0,0,0,0,0,0,0,0,2.4292,2.4259,2.4341,2.4331,2.433,2.4375,2.4376,2.4376,2.4346,2.4344,2.4342,2.434,2.4382,2.4385,2.4388,2.4447,0,0,2.4399,2.44,0,0,0,0,0,0,0,0,2.429,2.4296,2.4332,2.4332,2.4331,2.4354,2.4361,2.44,2.4346,2.434,2.4342,2.4339,2.4376,2.4379,2.439,2.4449,2.4451,2.4399,2.4401,2.4403,2.4404,0,0,0,0,0,0,0,2.4288,2.4294,2.4355,2.4333,2.4332,2.4327,2.4329,2.4368,2.4368,2.4341,2.4338,2.4343,2.4375,2.4387,2.4391,2.4452,2.4399,2.4402,2.4404,2.4405,2.4562,2.4564,0,0,0,0,0,0,2.4286,2.4292,2.4354,2.4356,2.4305,2.433,2.4333,2.4349,2.4368,2.4369,2.4344,2.4341,2.4382,2.4387,2.4392,2.4463,2.4403,2.4406,2.4408,2.456,2.4563,2.4565,0,0,0,0,0,0,2.4284,2.4292,2.4353,2.4324,2.4331,2.4333,2.4351,2.435,2.4362,2.437,2.4371,2.4356,2.4381,2.4387,2.4434,2.4464,2.4407,2.441,2.4558,2.4561,2.4564,2.4605,0,0,0,0,0,0,2.4282,2.4291,2.4312,2.4324,2.4332,2.4392,2.4353,2.4352,2.4367,2.4364,2.4381,2.4383,2.438,2.4429,2.4437,2.4468,2.4413,2.4555,2.4559,2.4563,2.4601,2.461,2.4617,0,0,0,0,0,2.4279,2.4324,2.4313,2.4321,2.4358,2.4393,2.4398,2.4392,2.437,2.4392,2.4397,2.4382,2.4459,2.4434,2.4443,2.4475,2.4553,2.4558,2.4563,2.4598,2.4608,2.4617,0,0,0,0,0,0,2.4318,2.4325,2.4314,2.4363,2.4378,2.4388,2.4416,2.4403,2.4426,2.4421,2.4415,2.4419,2.4468,2.4476,2.4447,2.4534,2.4503,2.451,2.4527,2.4536,2.4544,2.4541,2.4416,0,0,0,0,0,2.4331,2.4357,2.4363,2.4407,2.4414,2.4414,2.4429,2.4422,2.4438,2.4445,2.4453,2.4471,2.4499,2.4518,2.4545,2.4602,2.4607,2.4629,2.4637,2.4643,2.4649,2.4682,2.4692,2.4581,2.4581,2.4581,0,0,2.4361,2.4369,2.4386,2.4415,2.4425,2.4454,2.4419,2.4451,2.4473,2.445,2.4494,2.4501,2.4521,2.4573,2.4596,2.4581,2.4681,2.4649,2.4654,2.4657,2.4688,2.4698,2.4708,2.4584,2.4583,2.4583,0,0,2.4431,2.4438,2.4475,2.4486,2.4501,2.45,2.4509,2.4522,2.4525,2.4568,2.4552,2.4579,2.4627,2.4642,2.4656,2.473,2.4718,2.4739,2.478,2.4811,2.482,2.4828,2.4855,2.4865,2.4745,2.4745,2.4746,0,2.4466,2.4507,2.4496,2.4529,2.4543,2.4521,2.456,2.4572,2.4596,2.4607,2.4589,2.465,2.4661,2.4717,2.4735,2.4747,2.4758,2.4738,2.4819,2.4827,2.4834,2.486,2.4871,2.4748,2.4748,2.4747,2.4747,0,2.4551,2.4579,2.4608,2.4629,2.4646,2.4682,2.4679,2.4698,2.469,2.4692,2.4738,2.475,2.4779,2.4792,2.4785,2.4847,2.4837,2.4819,2.4788,2.4847,2.4872,2.4882,2.4752,2.4751,2.475,2.4749,0,0,2.4646,2.466,2.4671,2.4681,2.4696,2.4719,2.4755,2.4781,2.4798,2.4815,2.4846,2.4887,2.4871,2.4886,2.4882,2.4909,2.4968,2.4888,2.4888,2.4903,2.5039,2.5053,2.5064,2.496,2.4961,2.4963,2.5037,0,2.4716,2.4775,2.4767,2.4825,2.4852,2.4832,2.4863,2.4877,2.488,2.4905,2.4909,2.4938,2.4914,2.4923,2.4949,2.4956,2.4996,2.495,2.499,2.4992,2.4987,2.5077,2.5092,2.5161,2.5047,2.5048,2.505,0,2.4806,2.4825,2.4885,2.4896,2.4907,2.4935,2.4958,2.4982,2.4998,2.4998,2.5015,2.5005,2.5043,2.5011,2.5064,2.5033,2.5049,2.5055,2.5057,2.5062,2.5025,2.5085,2.5183,2.5194,2.5065,2.5063,2.5062,0,2.4871,2.4911,2.4952,2.4961,2.4975,2.4995,2.5002,2.5016,2.5032,2.5053,2.5064,2.509,2.5105,2.5127,2.5125,2.5101,2.518,2.5146,2.5183,2.5183,2.5201,2.52,2.5304,2.521,2.521,2.5209,2.5209,0,2.495,2.4988,2.4981,2.5007,2.5049,2.504,2.5083,2.5087,2.51,2.5128,2.5112,2.5139,2.5135,2.5162,2.5162,2.5206,2.5213,2.5216,2.5215,2.5218,2.5217,2.5229,2.5224,2.5212,2.5211,2.5211,2.521,0,2.503,2.5026,2.507,2.5079,2.5082,2.5113,2.5122,2.5147,2.5148,2.5183,2.5191,2.5194,2.5226,2.5225,2.5262,2.5262,2.5317,2.5311,2.5311,2.531,2.5346,2.5343,2.5462,2.5478,2.5373,2.5374,2.5374,0,2.5082,2.511,2.5121,2.5138,2.5145,2.5172,2.5188,2.5181,2.5198,2.5219,2.5242,2.5271,2.5294,2.5346,2.5353,2.5381,2.5376,2.5416,2.5381,2.5382,2.5378,2.5377,2.538,2.5423,2.5425,2.5426,2.5426,0,2.5174,2.5171,2.5193,2.5215,2.5234,2.5251,2.5268,2.5282,2.5277,2.5298,2.5329,2.5346,2.5383,2.5413,2.544,2.545,2.5438,2.5437,2.5447,2.545,2.545,2.5451,2.5331,2.5435,2.5434,2.5433,2.5433,2.5433,2.5242,2.5266,2.5278,2.5304,2.5314,2.533,2.5354,2.5357,2.5382,2.5409,2.5404,2.5439,2.5455,2.549,2.5502,2.5531,2.5517,2.5531,2.5535,2.5539,2.5543,2.5444,2.5536,2.5535,2.5535,2.5535,2.5535,0,2.5334,2.534,2.5364,2.5386,2.5407,2.5391,2.5408,2.5427,2.5457,2.5472,2.5494,2.553,2.556,2.5568,2.5597,2.5618,2.5614,2.5626,2.5625,2.5628,2.5553,2.5542,2.5629,2.5629,2.5629,2.5629,2.5629,2.5629,2.5385,2.5425,2.5423,2.547,2.5476,2.5508,2.5519,2.5534,2.5546,2.5586,2.5609,2.5614,2.5627,2.5656,2.5683,2.5685,2.5697,2.5712,2.5712,2.5643,2.5633,2.5624,2.5613,2.5714,2.5714,2.5784,2.5785,2.5785]},{"header":{"parameterUnit":"m.s-1","parameterCategory":1,"la1":30.2991,"la2":30.254,"lo1":-89.0895,"lo2":-89.0444,"dy":0.0017,"dx":0.0017,"nx":28,"ny":28,"refTime":"2025-07-11T03:00:00:Z","depth":0,"parameterNumber":3,"parameterNumberName":"V-component_of_WINDS"},"data":[0,0,0,0,0,0,0,0,0,0,0,0,0,0,0,0,0,0,0,0,0,0,0,0,0,0,0,0,0,0,0,0,0,0,0,0,0,0,0,0,0,0,0,0,0,0,0,0,0,0,0,0,0,0,0,0,0,0,1.2044,1.2044,0,1.1997,1.1996,1.1996,1.1942,1.1941,1.194,1.194,1.189,1.189,1.1889,0,0,0,0,0,0,0,0,0,0,0,0,0,1.2087,1.2087,1.2044,1.2044,1.2043,1.1997,1.1996,1.1996,1.1942,1.1941,1.194,1.1939,1.189,1.189,1.1889,0,0,0,0,0,0,0,0,0,0,0,0,0,1.2057,1.2087,1.2044,1.2011,1.2007,1.1997,1.1996,1.1996,1.1942,1.1941,1.194,1.1939,1.1891,1.189,1.1889,1.1908,0,0,1.1886,1.1886,0,0,0,0,0,0,0,0,1.2059,1.2056,1.2016,1.2013,1.2009,1.1974,1.1993,1.1966,1.1943,1.1967,1.194,1.1938,1.1919,1.1916,1.1909,1.1905,1.1903,1.1886,1.1886,1.1885,1.1885,0,0,0,0,0,0,0,1.2061,1.2057,1.2026,1.2016,1.2012,1.1998,1.1992,1.1988,1.195,1.1965,1.1961,1.1956,1.1917,1.191,1.1908,1.1902,1.1886,1.1885,1.1885,1.1885,1.1908,1.191,0,0,0,0,0,0,1.2068,1.206,1.2027,1.2024,1.2032,1.1998,1.1992,1.1987,1.195,1.1944,1.1957,1.1954,1.1912,1.1909,1.1906,1.1923,1.1885,1.1885,1.1884,1.1907,1.1909,1.191,0,0,0,0,0,0,1.207,1.2066,1.2029,1.2041,1.2035,1.1999,1.1993,1.1986,1.198,1.1944,1.1937,1.1957,1.1911,1.1907,1.1907,1.1921,1.1884,1.1883,1.1906,1.1908,1.1909,1.1959,0,0,0,0,0,0,1.2071,1.2067,1.2074,1.2041,1.2035,1.2031,1.1994,1.1986,1.1979,1.1974,1.1943,1.1936,1.191,1.1909,1.1906,1.1919,1.1883,1.1904,1.1907,1.1909,1.1956,1.1962,1.1968,0,0,0,0,0,1.2073,1.209,1.2074,1.2071,1.2043,1.2032,1.2028,1.1998,1.198,1.1986,1.1963,1.1937,1.192,1.1909,1.1906,1.1918,1.1903,1.1906,1.1909,1.1953,1.1961,1.1967,0,0,0,0,0,0,1.2125,1.2085,1.2067,1.2075,1.2057,1.2023,1.203,1.2007,1.1994,1.199,1.1953,1.1946,1.195,1.1935,1.1923,1.1933,1.1908,1.191,1.1943,1.195,1.1956,1.1958,1.1882,0,0,0,0,0,1.2137,1.2133,1.2098,1.2108,1.21,1.2067,1.2061,1.2039,1.202,1.2012,1.1989,1.1971,1.1961,1.1955,1.1944,1.1954,1.1945,1.1961,1.1967,1.1972,1.1973,1.1975,1.1981,1.1918,1.1918,1.1918,0,0,1.2162,1.214,1.2139,1.2118,1.2101,1.2097,1.2061,1.2058,1.2053,1.2011,1.2009,1.1992,1.1969,1.1973,1.1974,1.196,1.1989,1.1975,1.198,1.1978,1.1979,1.1984,1.199,1.192,1.192,1.192,0,0,1.2205,1.2189,1.2194,1.2179,1.2155,1.2133,1.2134,1.2104,1.209,1.2088,1.2056,1.205,1.2035,1.2019,1.2009,1.2046,1.202,1.2043,1.2073,1.2075,1.208,1.2084,1.2095,1.2099,1.2045,1.2046,1.2046,0,1.2239,1.2231,1.22,1.2198,1.2189,1.2151,1.2155,1.2142,1.2116,1.211,1.2095,1.2074,1.2056,1.2055,1.2064,1.2058,1.2057,1.2045,1.2082,1.2086,1.2089,1.2099,1.2103,1.2048,1.2048,1.2048,1.2047,0,1.2273,1.2268,1.2275,1.225,1.2242,1.2244,1.2212,1.2207,1.2186,1.2165,1.2162,1.214,1.2122,1.2121,1.2101,1.2117,1.2109,1.2089,1.2062,1.2098,1.2107,1.211,1.2052,1.2051,1.205,1.205,0,0,1.2345,1.2304,1.2307,1.2294,1.2265,1.226,1.226,1.2243,1.2239,1.2223,1.222,1.2208,1.2188,1.2177,1.2155,1.2157,1.2185,1.2136,1.2135,1.2144,1.2198,1.2212,1.2217,1.2169,1.217,1.217,1.2199,0,1.2381,1.2377,1.2349,1.2354,1.2347,1.2312,1.2311,1.2293,1.2274,1.2265,1.2244,1.2234,1.2211,1.2204,1.2205,1.2181,1.2195,1.2179,1.2164,1.2164,1.2168,1.2221,1.2236,1.2264,1.2203,1.2203,1.2204,0,1.2421,1.2407,1.2411,1.2381,1.2377,1.2377,1.2359,1.2352,1.233,1.2316,1.2303,1.2278,1.2274,1.2251,1.2244,1.2234,1.2227,1.2214,1.2215,1.221,1.2184,1.2216,1.2273,1.2276,1.2209,1.2209,1.2208,0,1.2471,1.2453,1.2452,1.2443,1.2409,1.2409,1.2395,1.2372,1.2364,1.2348,1.2342,1.2326,1.2317,1.2305,1.2275,1.2262,1.2271,1.2246,1.2257,1.2258,1.2259,1.2259,1.2313,1.2259,1.2259,1.2258,1.2258,0,1.2512,1.2515,1.2473,1.2473,1.2475,1.2442,1.2445,1.2427,1.2407,1.2402,1.2371,1.2366,1.2329,1.232,1.2298,1.2294,1.2291,1.2278,1.2271,1.2279,1.228,1.2271,1.2268,1.226,1.2259,1.2259,1.2259,0,1.2566,1.2539,1.2535,1.2503,1.2495,1.2498,1.247,1.2467,1.2447,1.244,1.2436,1.2404,1.2391,1.2361,1.2341,1.2326,1.2327,1.2317,1.2334,1.233,1.2342,1.234,1.239,1.2394,1.234,1.2341,1.2341,0,1.2592,1.2594,1.2562,1.2556,1.2543,1.2535,1.2526,1.2494,1.2486,1.2461,1.2461,1.2447,1.2433,1.2414,1.2388,1.2372,1.2359,1.2378,1.2356,1.2364,1.2356,1.2355,1.2354,1.2382,1.2383,1.2383,1.2384,0,1.2641,1.2628,1.2617,1.26,1.2591,1.2577,1.256,1.2557,1.2522,1.2514,1.2501,1.2491,1.247,1.2455,1.2434,1.2418,1.2394,1.2391,1.2392,1.2399,1.2408,1.2401,1.2344,1.2389,1.2389,1.2388,1.2388,1.2388,1.268,1.2679,1.2657,1.2645,1.263,1.2615,1.2611,1.259,1.2579,1.2559,1.2542,1.253,1.2507,1.2477,1.2463,1.2453,1.2441,1.2443,1.2443,1.2444,1.2446,1.2412,1.2449,1.2449,1.2449,1.2449,1.2449,0,1.2726,1.271,1.2699,1.2678,1.2668,1.2648,1.2629,1.2622,1.2612,1.2594,1.2581,1.2565,1.255,1.2523,1.2505,1.2502,1.249,1.2498,1.2497,1.2493,1.2459,1.2459,1.2508,1.2508,1.2507,1.2507,1.2507,1.2507,1.2748,1.2745,1.2729,1.2717,1.27,1.2689,1.268,1.2666,1.265,1.2634,1.2622,1.2605,1.2582,1.2562,1.2547,1.2539,1.2533,1.2544,1.2533,1.2501,1.2495,1.249,1.2489,1.2544,1.2544,1.2567,1.2567,1.2567]}]]